Time,TemperatureF,DewpointF,PressureIn,WindDirection,WindDirectionDegrees,WindSpeedMPH,WindSpeedGustMPH,Humidity,HourlyPrecipIn,Conditions,Clouds,dailyrainin,SolarRadiationWatts/m^2,SoftwareType,DateUTC
2013-05-18 00:00:00,62.9,60.8,30.03,West,265,0.0,0.0,93,0.00,,,0.00,0,Wunderground v.1.15,2013-05-18 04:00:00,
2013-05-18 00:05:00,62.9,60.8,30.03,West,265,0.0,0.0,93,0.00,,,0.00,0,Wunderground v.1.15,2013-05-18 04:05:00,
2013-05-18 00:10:00,62.8,60.7,30.03,West,265,0.0,0.0,93,0.00,,,0.01,0,Wunderground v.1.15,2013-05-18 04:10:00,
2013-05-18 00:15:00,62.8,60.7,30.03,West,265,0.0,0.0,93,0.00,,,0.01,0,Wunderground v.1.15,2013-05-18 04:15:00,
2013-05-18 00:20:00,62.8,60.7,30.03,West,265,0.0,0.0,93,0.00,,,0.01,0,Wunderground v.1.15,2013-05-18 04:20:00,
2013-05-18 00:25:00,62.8,60.7,30.03,West,265,0.0,0.0,93,0.05,,,0.02,0,Wunderground v.1.15,2013-05-18 04:25:00,
2013-05-18 00:30:00,62.7,60.6,30.03,West,265,0.0,0.0,93,0.07,,,0.03,0,Wunderground v.1.15,2013-05-18 04:30:00,
2013-05-18 00:35:00,62.7,60.6,30.03,West,265,0.0,0.0,93,0.07,,,0.03,0,Wunderground v.1.15,2013-05-18 04:35:00,
2013-05-18 00:40:00,62.7,60.6,30.03,West,265,0.0,0.0,93,0.24,,,0.05,0,Wunderground v.1.15,2013-05-18 04:40:00,
2013-05-18 00:45:00,62.6,60.5,30.03,West,265,0.0,0.0,93,0.22,,,0.06,0,Wunderground v.1.15,2013-05-18 04:45:00,
2013-05-18 00:50:00,62.5,60.4,30.03,West,265,0.0,0.0,93,0.15,,,0.08,0,Wunderground v.1.15,2013-05-18 04:50:00,
2013-05-18 00:55:00,62.5,60.4,30.03,West,265,0.0,0.0,93,0.20,,,0.10,0,Wunderground v.1.15,2013-05-18 04:55:00,
2013-05-18 01:00:00,62.5,60.4,30.03,West,265,0.0,0.0,93,0.20,,,0.11,0,Wunderground v.1.15,2013-05-18 05:00:00,
2013-05-18 01:05:00,62.4,60.7,30.03,West,265,0.0,0.0,94,0.24,,,0.13,0,Wunderground v.1.15,2013-05-18 05:05:00,
2013-05-18 01:15:00,62.3,60.6,30.02,West,265,0.0,0.0,94,0.30,,,0.17,0,Wunderground v.1.15,2013-05-18 05:15:00,
2013-05-18 01:20:00,62.3,60.6,30.02,West,265,0.0,0.0,94,0.11,,,0.18,0,Wunderground v.1.15,2013-05-18 05:20:00,
2013-05-18 01:25:00,62.2,60.5,30.02,West,265,0.0,0.0,94,0.11,,,0.19,0,Wunderground v.1.15,2013-05-18 05:25:00,
2013-05-18 01:30:00,62.2,60.5,30.02,West,265,0.0,0.0,94,0.09,,,0.19,0,Wunderground v.1.15,2013-05-18 05:30:00,
2013-05-18 01:35:00,62.1,60.4,30.02,West,265,0.0,0.0,94,0.05,,,0.19,0,Wunderground v.1.15,2013-05-18 05:35:00,
2013-05-18 01:40:00,62.1,60.4,30.02,West,265,0.0,0.0,94,0.05,,,0.20,0,Wunderground v.1.15,2013-05-18 05:40:00,
2013-05-18 01:50:00,62.1,60.4,30.02,West,265,0.0,0.0,94,0.08,,,0.21,0,Wunderground v.1.15,2013-05-18 05:50:00,
2013-05-18 01:55:00,62.1,60.4,30.02,West,265,0.0,0.0,94,0.06,,,0.22,0,Wunderground v.1.15,2013-05-18 05:55:00,
2013-05-18 02:00:00,62.1,60.4,30.02,West,265,0.0,0.0,94,0.11,,,0.23,0,Wunderground v.1.15,2013-05-18 06:00:00,
2013-05-18 02:05:00,62.0,60.3,30.01,West,265,0.0,0.0,94,0.09,,,0.23,0,Wunderground v.1.15,2013-05-18 06:05:00,
2013-05-18 02:15:00,62.0,60.3,30.01,West,265,0.0,0.0,94,0.04,,,0.24,0,Wunderground v.1.15,2013-05-18 06:15:00,
2013-05-18 02:20:00,62.0,60.3,30.01,West,265,0.0,0.0,94,0.04,,,0.24,0,Wunderground v.1.15,2013-05-18 06:20:00,
2013-05-18 02:25:00,62.0,60.3,30.01,West,265,0.0,0.0,94,0.06,,,0.25,0,Wunderground v.1.15,2013-05-18 06:25:00,
2013-05-18 02:30:00,62.0,60.3,30.00,West,265,0.0,0.0,94,0.06,,,0.25,0,Wunderground v.1.15,2013-05-18 06:30:00,
2013-05-18 02:35:00,62.0,60.3,30.00,West,265,0.0,0.0,94,0.05,,,0.25,0,Wunderground v.1.15,2013-05-18 06:35:00,
2013-05-18 02:40:00,62.0,60.3,30.00,West,265,0.0,0.0,94,0.04,,,0.26,0,Wunderground v.1.15,2013-05-18 06:40:00,
2013-05-18 02:45:00,62.0,60.3,30.00,West,265,0.0,0.0,94,0.16,,,0.27,0,Wunderground v.1.15,2013-05-18 06:45:00,
2013-05-18 02:50:00,62.0,60.3,30.00,West,265,0.0,0.0,94,0.08,,,0.27,0,Wunderground v.1.15,2013-05-18 06:50:00,
2013-05-18 03:00:00,62.0,60.6,29.99,West,265,0.0,0.0,95,0.00,,,0.27,0,Wunderground v.1.15,2013-05-18 07:00:00,
2013-05-18 03:05:00,62.0,60.6,29.99,West,265,0.0,0.0,95,0.00,,,0.27,0,Wunderground v.1.15,2013-05-18 07:05:00,
2013-05-18 03:15:00,62.0,60.6,29.99,West,265,0.0,0.0,95,0.00,,,0.27,0,Wunderground v.1.15,2013-05-18 07:15:00,
2013-05-18 03:20:00,62.0,60.6,29.99,West,265,0.0,0.0,95,0.00,,,0.27,0,Wunderground v.1.15,2013-05-18 07:20:00,
2013-05-18 03:25:00,62.0,60.6,29.99,West,265,0.0,0.0,95,0.00,,,0.28,0,Wunderground v.1.15,2013-05-18 07:25:00,
2013-05-18 03:35:00,62.0,60.6,29.99,West,265,0.0,0.0,95,0.00,,,0.28,0,Wunderground v.1.15,2013-05-18 07:35:00,
2013-05-18 03:40:00,62.0,60.6,29.99,West,265,0.0,0.0,95,0.00,,,0.28,0,Wunderground v.1.15,2013-05-18 07:40:00,
2013-05-18 03:45:00,62.1,60.7,29.99,West,265,0.0,0.0,95,0.00,,,0.29,0,Wunderground v.1.15,2013-05-18 07:45:00,
2013-05-18 03:50:00,62.1,60.7,29.98,West,265,0.0,0.0,95,0.00,,,0.29,0,Wunderground v.1.15,2013-05-18 07:50:00,
2013-05-18 03:55:00,62.1,60.7,29.99,West,265,0.0,0.0,95,0.00,,,0.29,0,Wunderground v.1.15,2013-05-18 07:55:00,
2013-05-18 04:00:00,62.1,60.7,29.99,West,265,0.0,0.0,95,0.00,,,0.29,0,Wunderground v.1.15,2013-05-18 08:00:00,
2013-05-18 04:05:00,62.1,60.7,29.99,West,265,0.0,0.0,95,0.00,,,0.29,0,Wunderground v.1.15,2013-05-18 08:05:00,
2013-05-18 04:15:00,62.2,60.8,29.98,West,265,0.0,0.0,95,0.00,,,0.29,0,Wunderground v.1.15,2013-05-18 08:15:00,
2013-05-18 04:20:00,62.2,60.8,29.99,West,265,0.0,0.0,95,0.00,,,0.29,0,Wunderground v.1.15,2013-05-18 08:20:00,
2013-05-18 04:25:00,62.2,60.8,29.98,West,265,0.0,0.0,95,0.00,,,0.29,0,Wunderground v.1.15,2013-05-18 08:25:00,
2013-05-18 04:30:00,62.2,60.8,29.98,West,265,0.0,0.0,95,0.00,,,0.29,0,Wunderground v.1.15,2013-05-18 08:30:00,
2013-05-18 04:35:00,62.2,60.8,29.98,West,265,0.0,0.0,95,0.00,,,0.29,0,Wunderground v.1.15,2013-05-18 08:35:00,
2013-05-18 04:45:00,62.1,60.7,29.98,West,265,0.0,0.0,95,0.00,,,0.29,0,Wunderground v.1.15,2013-05-18 08:45:00,
2013-05-18 04:50:00,62.1,60.7,29.98,West,265,0.0,0.0,95,0.00,,,0.29,0,Wunderground v.1.15,2013-05-18 08:50:00,
2013-05-18 04:55:00,62.2,60.8,29.98,West,265,0.0,0.0,95,0.00,,,0.29,0,Wunderground v.1.15,2013-05-18 08:55:00,
2013-05-18 05:00:00,62.2,60.8,29.98,West,265,0.0,0.0,95,0.00,,,0.29,0,Wunderground v.1.15,2013-05-18 09:00:00,
2013-05-18 05:05:00,62.2,60.8,29.98,West,265,0.0,0.0,95,0.00,,,0.29,0,Wunderground v.1.15,2013-05-18 09:05:00,
2013-05-18 05:15:00,62.2,60.8,29.98,West,265,0.0,0.0,95,0.00,,,0.29,0,Wunderground v.1.15,2013-05-18 09:15:00,
2013-05-18 05:20:00,62.2,60.8,29.98,West,265,0.0,0.0,95,0.00,,,0.29,0,Wunderground v.1.15,2013-05-18 09:20:00,
2013-05-18 05:25:00,62.2,60.8,29.99,West,265,0.0,0.0,95,0.00,,,0.29,0,Wunderground v.1.15,2013-05-18 09:25:00,
2013-05-18 05:30:00,62.2,60.8,29.99,West,265,0.0,0.0,95,0.00,,,0.29,0,Wunderground v.1.15,2013-05-18 09:30:00,
2013-05-18 05:35:00,62.1,60.7,29.99,West,265,0.0,0.0,95,0.00,,,0.29,0,Wunderground v.1.15,2013-05-18 09:35:00,
2013-05-18 05:40:00,62.1,60.7,29.99,West,265,0.0,0.0,95,0.00,,,0.29,0,Wunderground v.1.15,2013-05-18 09:40:00,
2013-05-18 05:45:00,62.1,60.7,29.99,West,265,0.0,0.0,95,0.00,,,0.29,0,Wunderground v.1.15,2013-05-18 09:45:00,
2013-05-18 05:50:00,62.1,60.7,29.99,West,265,0.0,0.0,95,0.23,,,0.31,0,Wunderground v.1.15,2013-05-18 09:50:00,
2013-05-18 06:00:00,62.1,60.7,29.99,West,265,0.0,0.0,95,0.06,,,0.31,0,Wunderground v.1.15,2013-05-18 10:00:00,
2013-05-18 06:05:00,62.1,60.7,29.99,West,265,0.0,0.0,95,0.04,,,0.31,0,Wunderground v.1.15,2013-05-18 10:05:00,
2013-05-18 06:15:00,62.1,60.7,29.99,West,265,0.0,0.0,95,0.00,,,0.31,0,Wunderground v.1.15,2013-05-18 10:15:00,
2013-05-18 06:20:00,62.1,60.7,29.99,West,265,0.0,0.0,95,0.00,,,0.31,0,Wunderground v.1.15,2013-05-18 10:20:00,
2013-05-18 06:25:00,62.1,60.7,29.99,West,265,0.0,0.0,95,0.00,,,0.31,0,Wunderground v.1.15,2013-05-18 10:25:00,
2013-05-18 06:35:00,62.0,60.6,30.00,West,265,0.0,0.0,95,0.00,,,0.32,0,Wunderground v.1.15,2013-05-18 10:35:00,
2013-05-18 06:40:00,62.0,60.6,30.00,West,265,0.0,0.0,95,0.14,,,0.33,0,Wunderground v.1.15,2013-05-18 10:40:00,
2013-05-18 06:45:00,62.0,60.6,30.00,West,265,0.0,0.0,95,0.07,,,0.33,0,Wunderground v.1.15,2013-05-18 10:45:00,
2013-05-18 06:50:00,62.0,60.6,30.00,West,265,0.0,0.0,95,0.04,,,0.33,0,Wunderground v.1.15,2013-05-18 10:50:00,
2013-05-18 06:55:00,62.1,60.7,30.00,West,265,0.0,0.0,95,0.00,,,0.33,0,Wunderground v.1.15,2013-05-18 10:55:00,
2013-05-18 07:00:00,62.2,60.8,30.00,West,265,0.0,0.0,95,0.00,,,0.33,0,Wunderground v.1.15,2013-05-18 11:00:00,
2013-05-18 07:05:00,62.2,60.8,30.00,West,265,0.0,0.0,95,0.00,,,0.33,0,Wunderground v.1.15,2013-05-18 11:05:00,
2013-05-18 07:15:00,62.3,60.8,30.00,West,267,0.0,0.0,95,0.00,,,0.33,0,Wunderground v.1.15,2013-05-18 11:15:00,
2013-05-18 07:20:00,62.2,60.8,30.00,West,267,0.0,0.0,95,0.00,,,0.33,0,Wunderground v.1.15,2013-05-18 11:20:00,
2013-05-18 07:25:00,62.2,60.8,30.00,West,267,0.0,0.0,95,0.00,,,0.33,5,Wunderground v.1.15,2013-05-18 11:25:00,
2013-05-18 07:30:00,62.2,60.8,30.00,North,355,0.0,0.0,95,0.00,,,0.33,5,Wunderground v.1.15,2013-05-18 11:30:00,
2013-05-18 07:35:00,62.2,60.8,30.00,North,360,0.0,0.0,95,0.00,,,0.33,9,Wunderground v.1.15,2013-05-18 11:35:00,
2013-05-18 07:40:00,62.2,60.8,30.01,NNE,20,0.0,0.0,95,0.00,,,0.33,14,Wunderground v.1.15,2013-05-18 11:40:00,
2013-05-18 07:50:00,62.3,60.8,30.01,NNE,20,0.0,0.0,95,0.00,,,0.33,18,Wunderground v.1.15,2013-05-18 11:50:00,
2013-05-18 07:55:00,62.3,61.1,30.01,NNE,20,0.0,0.0,96,0.00,,,0.33,19,Wunderground v.1.15,2013-05-18 11:55:00,
2013-05-18 08:00:00,62.4,61.2,30.01,NNE,20,0.0,0.0,96,0.00,,,0.33,21,Wunderground v.1.15,2013-05-18 12:00:00,
2013-05-18 08:05:00,62.5,61.3,30.01,NNE,20,0.0,0.0,96,0.00,,,0.33,26,Wunderground v.1.15,2013-05-18 12:05:00,
2013-05-18 08:15:00,62.6,61.1,30.01,NNE,20,0.0,0.0,95,0.00,,,0.33,25,Wunderground v.1.15,2013-05-18 12:15:00,
2013-05-18 08:25:00,62.8,61.3,30.01,WNW,285,0.0,0.0,95,0.00,,,0.33,25,Wunderground v.1.15,2013-05-18 12:25:00,
2013-05-18 08:30:00,62.8,61.3,30.01,WNW,285,0.0,0.0,95,0.00,,,0.33,23,Wunderground v.1.15,2013-05-18 12:30:00,
2013-05-18 08:35:00,62.7,61.2,30.01,WNW,285,0.0,0.0,95,0.00,,,0.33,32,Wunderground v.1.15,2013-05-18 12:35:00,
2013-05-18 08:40:00,62.6,61.1,30.01,WNW,285,0.0,0.0,95,0.00,,,0.33,37,Wunderground v.1.15,2013-05-18 12:40:00,
2013-05-18 08:45:00,62.8,61.3,30.01,WNW,285,0.0,0.0,95,0.00,,,0.33,51,Wunderground v.1.15,2013-05-18 12:45:00,
2013-05-18 08:50:00,62.9,61.4,30.02,WNW,285,0.0,0.0,95,0.00,,,0.33,83,Wunderground v.1.15,2013-05-18 12:50:00,
2013-05-18 09:00:00,63.5,62.3,30.01,NNW,331,0.0,1.0,96,0.00,,,0.33,77,Wunderground v.1.15,2013-05-18 13:00:00,
2013-05-18 09:05:00,63.4,62.2,30.02,WSW,238,0.0,1.0,96,0.00,,,0.33,35,Wunderground v.1.15,2013-05-18 13:05:00,
2013-05-18 09:15:00,63.4,61.9,30.02,WSW,238,0.0,0.0,95,0.00,,,0.33,44,Wunderground v.1.15,2013-05-18 13:15:00,
2013-05-18 09:20:00,63.2,61.7,30.02,WSW,238,0.0,0.0,95,0.00,,,0.33,54,Wunderground v.1.15,2013-05-18 13:20:00,
2013-05-18 09:25:00,63.2,61.7,30.02,WSW,238,0.0,0.0,95,0.00,,,0.33,44,Wunderground v.1.15,2013-05-18 13:25:00,
2013-05-18 09:35:00,63.3,61.8,30.02,WSW,238,0.0,0.0,95,0.00,,,0.33,51,Wunderground v.1.15,2013-05-18 13:35:00,
2013-05-18 09:40:00,63.4,61.9,30.02,WSW,238,0.0,0.0,95,0.00,,,0.33,102,Wunderground v.1.15,2013-05-18 13:40:00,
2013-05-18 09:45:00,63.5,62.0,30.02,WSW,238,0.0,0.0,95,0.00,,,0.33,107,Wunderground v.1.15,2013-05-18 13:45:00,
2013-05-18 09:50:00,63.5,62.0,30.02,West,267,0.0,0.0,95,0.00,,,0.33,46,Wunderground v.1.15,2013-05-18 13:50:00,
2013-05-18 09:55:00,63.6,62.1,30.02,West,266,0.0,0.0,95,0.00,,,0.33,56,Wunderground v.1.15,2013-05-18 13:55:00,
2013-05-18 10:00:00,63.6,62.1,30.02,West,266,0.0,0.0,95,0.00,,,0.33,81,Wunderground v.1.15,2013-05-18 14:00:00,
2013-05-18 10:05:00,63.8,62.3,30.02,West,266,0.0,0.0,95,0.00,,,0.33,72,Wunderground v.1.15,2013-05-18 14:05:00,
2013-05-18 10:15:00,63.7,62.2,30.02,West,266,0.0,1.0,95,0.00,,,0.33,83,Wunderground v.1.15,2013-05-18 14:15:00,
2013-05-18 10:20:00,63.9,62.4,30.01,West,266,0.0,0.0,95,0.00,,,0.33,135,Wunderground v.1.15,2013-05-18 14:20:00,
2013-05-18 10:25:00,63.9,62.4,30.01,West,259,0.0,0.0,95,0.00,,,0.33,97,Wunderground v.1.15,2013-05-18 14:25:00,
2013-05-18 10:30:00,64.0,62.5,30.01,West,259,0.0,0.0,95,0.00,,,0.33,118,Wunderground v.1.15,2013-05-18 14:30:00,
2013-05-18 10:35:00,64.3,62.8,30.02,West,259,0.0,0.0,95,0.00,,,0.33,120,Wunderground v.1.15,2013-05-18 14:35:00,
2013-05-18 10:40:00,64.5,62.7,30.01,West,261,0.0,0.0,94,0.00,,,0.33,97,Wunderground v.1.15,2013-05-18 14:40:00,
2013-05-18 10:50:00,64.5,62.7,30.01,SSW,202,0.0,2.0,94,0.00,,,0.33,60,Wunderground v.1.15,2013-05-18 14:50:00,
2013-05-18 10:55:00,64.5,62.4,30.02,SSW,200,0.0,2.0,93,0.00,,,0.33,70,Wunderground v.1.15,2013-05-18 14:55:00,
2013-05-18 11:00:00,64.6,62.8,30.02,WSW,253,0.0,0.0,94,0.00,,,0.33,98,Wunderground v.1.15,2013-05-18 15:00:00,
2013-05-18 11:05:00,64.7,62.9,30.02,WSW,250,0.0,0.0,94,0.00,,,0.33,83,Wunderground v.1.15,2013-05-18 15:05:00,
2013-05-18 11:15:00,64.8,62.7,30.02,WSW,237,0.0,0.0,93,0.00,,,0.33,113,Wunderground v.1.15,2013-05-18 15:15:00,
2013-05-18 11:25:00,65.1,63.0,30.02,NW,307,0.0,0.0,93,0.00,,,0.33,114,Wunderground v.1.15,2013-05-18 15:25:00,
2013-05-18 11:30:00,65.3,63.5,30.02,WSW,249,0.0,0.0,94,0.00,,,0.33,139,Wunderground v.1.15,2013-05-18 15:30:00,
2013-05-18 11:35:00,65.3,63.2,30.02,SW,215,0.0,0.0,93,0.00,,,0.33,90,Wunderground v.1.15,2013-05-18 15:35:00,
2013-05-18 11:40:00,65.4,63.0,30.02,SW,215,0.0,0.0,92,0.00,,,0.33,135,Wunderground v.1.15,2013-05-18 15:40:00,
2013-05-18 11:45:00,65.6,63.2,30.02,West,261,0.0,0.0,92,0.00,,,0.33,123,Wunderground v.1.15,2013-05-18 15:45:00,
2013-05-18 11:55:00,65.8,63.4,30.02,NNW,346,0.0,0.0,92,0.00,,,0.33,113,Wunderground v.1.15,2013-05-18 15:55:00,
2013-05-18 12:00:00,65.9,63.5,30.02,NNW,346,0.0,0.0,92,0.00,,,0.33,148,Wunderground v.1.15,2013-05-18 16:00:00,
2013-05-18 12:05:00,66.1,64.0,30.02,NNW,346,0.0,0.0,93,0.00,,,0.33,100,Wunderground v.1.15,2013-05-18 16:05:00,
2013-05-18 12:15:00,66.1,63.7,30.02,SW,232,0.0,0.0,92,0.00,,,0.33,81,Wunderground v.1.15,2013-05-18 16:15:00,
2013-05-18 12:20:00,66.0,63.3,30.02,SW,227,0.0,0.0,91,0.00,,,0.33,160,Wunderground v.1.15,2013-05-18 16:20:00,
2013-05-18 12:30:00,66.3,63.9,30.02,SW,220,0.0,0.0,92,0.00,,,0.33,148,Wunderground v.1.15,2013-05-18 16:30:00,
2013-05-18 12:35:00,66.5,64.4,30.02,SW,220,0.0,0.0,93,0.00,,,0.33,141,Wunderground v.1.15,2013-05-18 16:35:00,
2013-05-18 12:40:00,66.6,64.2,30.02,SW,219,0.0,0.0,92,0.00,,,0.33,162,Wunderground v.1.15,2013-05-18 16:40:00,
2013-05-18 12:45:00,66.7,64.0,30.02,SSW,210,0.0,0.0,91,0.00,,,0.33,255,Wunderground v.1.15,2013-05-18 16:45:00,
2013-05-18 12:50:00,66.9,64.5,30.02,SW,216,0.0,0.0,92,0.00,,,0.33,135,Wunderground v.1.15,2013-05-18 16:50:00,
2013-05-18 12:55:00,67.0,64.0,30.02,SW,235,0.0,0.0,90,0.00,,,0.33,257,Wunderground v.1.15,2013-05-18 16:55:00,
2013-05-18 13:05:00,67.3,63.9,30.02,WSW,240,0.0,3.0,89,0.00,,,0.33,149,Wunderground v.1.15,2013-05-18 17:05:00,
2013-05-18 13:15:00,67.6,64.2,30.02,SW,234,0.0,1.0,89,0.00,,,0.33,225,Wunderground v.1.15,2013-05-18 17:15:00,
2013-05-18 13:20:00,67.9,64.2,30.02,NNW,339,0.0,0.0,88,0.00,,,0.33,190,Wunderground v.1.15,2013-05-18 17:20:00,
2013-05-18 13:25:00,68.2,64.8,30.02,SW,222,0.0,0.0,89,0.00,,,0.33,104,Wunderground v.1.15,2013-05-18 17:25:00,
2013-05-18 13:30:00,68.3,64.3,30.02,South,184,0.0,0.0,87,0.00,,,0.33,153,Wunderground v.1.15,2013-05-18 17:30:00,
2013-05-18 13:40:00,68.2,64.2,30.02,SW,225,0.0,0.0,87,0.00,,,0.33,102,Wunderground v.1.15,2013-05-18 17:40:00,
2013-05-18 13:45:00,68.1,64.1,30.02,NE,36,0.0,0.0,87,0.00,,,0.33,91,Wunderground v.1.15,2013-05-18 17:45:00,
2013-05-18 13:50:00,68.1,64.4,30.02,NE,37,0.0,0.0,88,0.00,,,0.33,121,Wunderground v.1.15,2013-05-18 17:50:00,
2013-05-18 13:55:00,68.1,64.7,30.02,NW,304,0.0,0.0,89,0.00,,,0.33,84,Wunderground v.1.15,2013-05-18 17:55:00,
2013-05-18 14:00:00,68.0,64.3,30.02,NW,304,0.0,0.0,88,0.00,,,0.33,70,Wunderground v.1.15,2013-05-18 18:00:00,
2013-05-18 14:05:00,67.9,64.2,30.02,West,261,0.0,1.0,88,0.00,,,0.33,77,Wunderground v.1.15,2013-05-18 18:05:00,
2013-05-18 14:15:00,67.9,64.2,30.02,WSW,245,0.0,0.0,88,0.00,,,0.33,69,Wunderground v.1.15,2013-05-18 18:15:00,
2013-05-18 14:20:00,67.8,64.1,30.02,WSW,258,0.0,0.0,88,0.00,,,0.33,100,Wunderground v.1.15,2013-05-18 18:20:00,
2013-05-18 14:25:00,67.8,64.1,30.01,WSW,258,0.0,0.0,88,0.00,,,0.33,181,Wunderground v.1.15,2013-05-18 18:25:00,
2013-05-18 14:30:00,67.9,64.2,30.01,WSW,251,0.0,0.0,88,0.00,,,0.33,137,Wunderground v.1.15,2013-05-18 18:30:00,
2013-05-18 14:35:00,68.2,64.8,30.01,WSW,251,0.0,0.0,89,0.00,,,0.33,276,Wunderground v.1.15,2013-05-18 18:35:00,
2013-05-18 14:40:00,68.6,65.2,30.01,ENE,64,0.0,0.0,89,0.00,,,0.33,146,Wunderground v.1.15,2013-05-18 18:40:00,
2013-05-18 14:50:00,68.8,64.8,30.01,WSW,240,0.0,0.0,87,0.00,,,0.33,83,Wunderground v.1.15,2013-05-18 18:50:00,
2013-05-18 14:55:00,68.8,64.8,30.01,WNW,292,0.0,0.0,87,0.00,,,0.33,102,Wunderground v.1.15,2013-05-18 18:55:00,
2013-05-18 15:00:00,68.8,65.1,30.01,WSW,254,0.0,0.0,88,0.00,,,0.33,220,Wunderground v.1.15,2013-05-18 19:00:00,
2013-05-18 15:05:00,69.1,65.4,30.01,NNW,348,0.0,0.0,88,0.00,,,0.33,146,Wunderground v.1.15,2013-05-18 19:05:00,
2013-05-18 15:15:00,69.2,65.2,30.01,WSW,238,0.0,0.0,87,0.00,,,0.33,102,Wunderground v.1.15,2013-05-18 19:15:00,
2013-05-18 15:25:00,69.0,65.3,30.00,WSW,238,0.0,0.0,88,0.00,,,0.33,121,Wunderground v.1.15,2013-05-18 19:25:00,
2013-05-18 15:35:00,68.7,65.3,30.00,WSW,238,0.0,0.0,89,0.00,,,0.34,301,Wunderground v.1.15,2013-05-18 19:35:00,
2013-05-18 15:40:00,68.9,66.2,30.00,WSW,251,0.0,1.0,91,0.00,,,0.34,418,Wunderground v.1.15,2013-05-18 19:40:00,
2013-05-18 15:45:00,69.4,66.7,30.00,WSW,248,0.0,1.0,91,0.00,,,0.34,257,Wunderground v.1.15,2013-05-18 19:45:00,
2013-05-18 15:50:00,69.9,67.2,30.00,WSW,248,0.0,0.0,91,0.00,,,0.34,733,Wunderground v.1.15,2013-05-18 19:50:00,
2013-05-18 16:00:00,70.1,66.4,30.00,SSE,153,0.0,0.0,88,0.00,,,0.34,756,Wunderground v.1.15,2013-05-18 20:00:00,
2013-05-18 16:05:00,70.4,67.0,30.00,SSE,153,0.0,1.0,89,0.00,,,0.34,258,Wunderground v.1.15,2013-05-18 20:05:00,
2013-05-18 16:15:00,70.3,66.6,30.00,West,264,0.0,0.0,88,0.00,,,0.34,200,Wunderground v.1.15,2013-05-18 20:15:00,
2013-05-18 16:20:00,70.1,66.0,30.00,SW,219,1.0,1.0,87,0.00,,,0.34,179,Wunderground v.1.15,2013-05-18 20:20:00,
2013-05-18 16:25:00,69.9,65.9,30.00,SSW,192,1.0,1.0,87,0.00,,,0.34,113,Wunderground v.1.15,2013-05-18 20:25:00,
2013-05-18 16:35:00,69.8,66.1,29.99,SSW,211,0.0,0.0,88,0.00,,,0.34,155,Wunderground v.1.15,2013-05-18 20:35:00,
2013-05-18 16:40:00,69.7,66.0,29.99,West,273,0.0,2.0,88,0.00,,,0.34,155,Wunderground v.1.15,2013-05-18 20:40:00,
2013-05-18 16:45:00,69.5,65.5,29.99,SSW,195,0.0,2.0,87,0.00,,,0.34,135,Wunderground v.1.15,2013-05-18 20:45:00,
2013-05-18 16:50:00,69.4,66.0,29.99,West,276,0.0,1.0,89,0.00,,,0.34,176,Wunderground v.1.15,2013-05-18 20:50:00,
2013-05-18 16:55:00,69.3,65.6,29.99,West,280,0.0,1.0,88,0.00,,,0.34,135,Wunderground v.1.15,2013-05-18 20:55:00,
2013-05-18 17:00:00,69.1,65.4,29.99,SW,225,0.0,0.0,88,0.00,,,0.34,93,Wunderground v.1.15,2013-05-18 21:00:00,
2013-05-18 17:05:00,68.7,65.3,29.99,WNW,294,0.0,0.0,89,0.00,,,0.34,114,Wunderground v.1.15,2013-05-18 21:05:00,
2013-05-18 17:15:00,68.8,65.7,29.99,West,269,0.0,0.0,90,0.00,,,0.34,185,Wunderground v.1.15,2013-05-18 21:15:00,
2013-05-18 17:20:00,69.1,66.0,29.99,West,267,0.0,0.0,90,0.00,,,0.34,171,Wunderground v.1.15,2013-05-18 21:20:00,
2013-05-18 17:25:00,69.2,65.5,29.98,SW,215,0.0,0.0,88,0.00,,,0.34,88,Wunderground v.1.15,2013-05-18 21:25:00,
2013-05-18 17:30:00,69.0,65.6,29.98,SW,226,1.0,1.0,89,0.00,,,0.34,91,Wunderground v.1.15,2013-05-18 21:30:00,
2013-05-18 17:35:00,69.0,65.9,29.98,WNW,284,0.0,1.0,90,0.00,,,0.34,81,Wunderground v.1.15,2013-05-18 21:35:00,
2013-05-18 17:40:00,69.0,65.6,29.98,SSW,198,0.0,0.0,89,0.00,,,0.34,114,Wunderground v.1.15,2013-05-18 21:40:00,
2013-05-18 17:50:00,68.9,65.5,29.98,SW,232,1.0,1.0,89,0.00,,,0.34,144,Wunderground v.1.15,2013-05-18 21:50:00,
2013-05-18 17:55:00,68.9,65.5,29.98,WSW,249,0.0,1.0,89,0.00,,,0.34,156,Wunderground v.1.15,2013-05-18 21:55:00,
2013-05-18 18:00:00,68.9,65.8,29.98,NNW,327,0.0,0.0,90,0.00,,,0.34,181,Wunderground v.1.15,2013-05-18 22:00:00,
2013-05-18 18:05:00,69.0,65.6,29.98,SW,236,0.0,0.0,89,0.00,,,0.34,134,Wunderground v.1.15,2013-05-18 22:05:00,
2013-05-18 18:15:00,68.9,65.8,29.98,WNW,290,0.0,1.0,90,0.00,,,0.34,123,Wunderground v.1.15,2013-05-18 22:15:00,
2013-05-18 18:25:00,69.0,65.6,29.98,West,275,0.0,0.0,89,0.00,,,0.34,81,Wunderground v.1.15,2013-05-18 22:25:00,
2013-05-18 18:30:00,68.9,65.5,29.98,WSW,256,0.0,0.0,89,0.00,,,0.34,116,Wunderground v.1.15,2013-05-18 22:30:00,
2013-05-18 18:35:00,68.9,65.8,29.98,WSW,257,0.0,0.0,90,0.00,,,0.34,98,Wunderground v.1.15,2013-05-18 22:35:00,
2013-05-18 18:40:00,68.8,65.4,29.98,SSW,209,0.0,0.0,89,0.00,,,0.34,54,Wunderground v.1.15,2013-05-18 22:40:00,
2013-05-18 18:45:00,68.8,65.4,29.98,WSW,246,0.0,0.0,89,0.00,,,0.34,40,Wunderground v.1.15,2013-05-18 22:45:00,
2013-05-18 18:50:00,68.6,65.2,29.98,WSW,250,0.0,0.0,89,0.00,,,0.34,32,Wunderground v.1.15,2013-05-18 22:50:00,
2013-05-18 19:00:00,68.5,65.4,29.99,WSW,250,0.0,0.0,90,0.00,,,0.34,42,Wunderground v.1.15,2013-05-18 23:00:00,
2013-05-18 19:05:00,68.4,65.4,29.99,WSW,250,0.0,0.0,90,0.00,,,0.34,30,Wunderground v.1.15,2013-05-18 23:05:00,
2013-05-18 19:15:00,68.1,65.1,29.99,WSW,250,0.0,0.0,90,0.00,,,0.34,19,Wunderground v.1.15,2013-05-18 23:15:00,
2013-05-18 19:20:00,68.0,65.0,29.99,WSW,250,0.0,0.0,90,0.00,,,0.34,19,Wunderground v.1.15,2013-05-18 23:20:00,
2013-05-18 19:25:00,68.0,65.0,29.99,WSW,247,0.0,0.0,90,0.00,,,0.34,21,Wunderground v.1.15,2013-05-18 23:25:00,
2013-05-18 19:35:00,67.9,65.2,29.99,WSW,247,0.0,0.0,91,0.00,,,0.34,16,Wunderground v.1.15,2013-05-18 23:35:00,
2013-05-18 19:40:00,67.9,65.2,29.99,WSW,247,0.0,1.0,91,0.00,,,0.34,18,Wunderground v.1.15,2013-05-18 23:40:00,
2013-05-18 19:45:00,67.9,65.2,29.99,WSW,247,0.0,1.0,91,0.00,,,0.34,14,Wunderground v.1.15,2013-05-18 23:45:00,
2013-05-18 19:50:00,67.8,65.1,29.99,WSW,247,0.0,0.0,91,0.00,,,0.34,14,Wunderground v.1.15,2013-05-18 23:50:00,
2013-05-18 19:55:00,67.8,65.1,30.00,WSW,247,0.0,0.0,91,0.00,,,0.34,9,Wunderground v.1.15,2013-05-18 23:55:00,
2013-05-18 20:00:00,67.8,65.4,30.00,WSW,247,0.0,0.0,92,0.00,,,0.34,11,Wunderground v.1.15,2013-05-19 00:00:00,
2013-05-18 20:05:00,67.7,65.0,29.99,WSW,246,0.0,0.0,91,0.00,,,0.34,16,Wunderground v.1.15,2013-05-19 00:05:00,
2013-05-18 20:15:00,67.6,65.2,30.00,WSW,246,0.0,0.0,92,0.00,,,0.34,0,Wunderground v.1.15,2013-05-19 00:15:00,
2013-05-18 20:20:00,67.5,65.1,30.00,WSW,246,0.0,0.0,92,0.00,,,0.34,0,Wunderground v.1.15,2013-05-19 00:20:00,
2013-05-18 20:25:00,67.4,65.0,30.00,WSW,246,0.0,0.0,92,0.00,,,0.34,0,Wunderground v.1.15,2013-05-19 00:25:00,
2013-05-18 20:30:00,67.4,65.0,30.00,WSW,246,0.0,0.0,92,0.00,,,0.34,0,Wunderground v.1.15,2013-05-19 00:30:00,
2013-05-18 20:35:00,67.3,64.9,30.00,WSW,246,0.0,0.0,92,0.00,,,0.34,0,Wunderground v.1.15,2013-05-19 00:35:00,
2013-05-18 20:45:00,67.2,64.8,30.00,WSW,246,0.0,0.0,92,0.00,,,0.34,0,Wunderground v.1.15,2013-05-19 00:45:00,
2013-05-18 20:50:00,67.1,64.7,30.01,WSW,246,0.0,0.0,92,0.00,,,0.34,0,Wunderground v.1.15,2013-05-19 00:50:00,
2013-05-18 20:55:00,67.1,64.7,30.01,WSW,246,0.0,0.0,92,0.00,,,0.34,0,Wunderground v.1.15,2013-05-19 00:55:00,
2013-05-18 21:00:00,67.0,64.6,30.00,WSW,246,0.0,0.0,92,0.00,,,0.34,0,Wunderground v.1.15,2013-05-19 01:00:00,
2013-05-18 21:05:00,67.0,64.9,30.01,WSW,246,0.0,0.0,93,0.00,,,0.34,0,Wunderground v.1.15,2013-05-19 01:05:00,
2013-05-18 21:15:00,66.9,64.8,30.01,WSW,246,0.0,0.0,93,0.00,,,0.34,0,Wunderground v.1.15,2013-05-19 01:15:00,
2013-05-18 21:25:00,66.8,64.7,30.01,WSW,246,0.0,0.0,93,0.00,,,0.34,0,Wunderground v.1.15,2013-05-19 01:25:00,
2013-05-18 21:30:00,66.7,64.6,30.00,WSW,246,0.0,0.0,93,0.00,,,0.34,0,Wunderground v.1.15,2013-05-19 01:30:00,
2013-05-18 21:35:00,66.7,64.6,30.00,WSW,246,0.0,0.0,93,0.00,,,0.34,0,Wunderground v.1.15,2013-05-19 01:35:00,
2013-05-18 21:40:00,66.6,64.5,30.00,WSW,246,0.0,0.0,93,0.00,,,0.34,0,Wunderground v.1.15,2013-05-19 01:40:00,
2013-05-18 21:50:00,66.4,64.3,30.00,WSW,246,0.0,0.0,93,0.00,,,0.34,0,Wunderground v.1.15,2013-05-19 01:50:00,
2013-05-18 21:55:00,66.3,64.2,30.00,WSW,246,0.0,0.0,93,0.00,,,0.34,0,Wunderground v.1.15,2013-05-19 01:55:00,
2013-05-18 22:00:00,66.2,64.1,30.00,WSW,246,0.0,0.0,93,0.00,,,0.34,0,Wunderground v.1.15,2013-05-19 02:00:00,
2013-05-18 22:05:00,66.1,64.0,30.00,WSW,246,0.0,0.0,93,0.00,,,0.34,0,Wunderground v.1.15,2013-05-19 02:05:00,
2013-05-18 22:15:00,65.8,63.7,30.00,WSW,246,0.0,0.0,93,0.00,,,0.34,0,Wunderground v.1.15,2013-05-19 02:15:00,
2013-05-18 22:25:00,65.5,63.4,30.01,WSW,246,0.0,0.0,93,0.00,,,0.34,0,Wunderground v.1.15,2013-05-19 02:25:00,
2013-05-18 22:30:00,65.4,63.3,30.01,WSW,246,0.0,0.0,93,0.00,,,0.34,0,Wunderground v.1.15,2013-05-19 02:30:00,
2013-05-18 22:35:00,65.3,63.5,30.01,WSW,246,0.0,0.0,94,0.00,,,0.34,0,Wunderground v.1.15,2013-05-19 02:35:00,
2013-05-18 22:40:00,65.2,63.1,30.01,WSW,246,0.0,0.0,93,0.00,,,0.34,0,Wunderground v.1.15,2013-05-19 02:40:00,
2013-05-18 22:45:00,64.9,62.8,30.02,WSW,246,0.0,0.0,93,0.00,,,0.34,0,Wunderground v.1.15,2013-05-19 02:45:00,
2013-05-18 22:50:00,64.8,63.0,30.01,WSW,246,0.0,0.0,94,0.00,,,0.34,0,Wunderground v.1.15,2013-05-19 02:50:00,
2013-05-18 22:55:00,64.6,62.8,30.01,WSW,246,0.0,0.0,94,0.00,,,0.34,0,Wunderground v.1.15,2013-05-19 02:55:00,
2013-05-18 23:05:00,64.6,62.8,30.02,WSW,246,0.0,0.0,94,0.00,,,0.34,0,Wunderground v.1.15,2013-05-19 03:05:00,
2013-05-18 23:15:00,64.3,62.5,30.02,WSW,246,0.0,0.0,94,0.00,,,0.34,0,Wunderground v.1.15,2013-05-19 03:15:00,
2013-05-18 23:20:00,64.3,62.5,30.02,WSW,246,0.0,0.0,94,0.00,,,0.34,0,Wunderground v.1.15,2013-05-19 03:20:00,
2013-05-18 23:25:00,64.2,62.4,30.01,WSW,246,0.0,0.0,94,0.00,,,0.34,0,Wunderground v.1.15,2013-05-19 03:25:00,
2013-05-18 23:30:00,64.2,62.4,30.01,WSW,246,0.0,0.0,94,0.00,,,0.34,0,Wunderground v.1.15,2013-05-19 03:30:00,
2013-05-18 23:40:00,64.1,62.6,30.01,WSW,246,0.0,0.0,95,0.00,,,0.34,0,Wunderground v.1.15,2013-05-19 03:40:00,
2013-05-18 23:45:00,64.0,62.2,30.01,WSW,246,0.0,0.0,94,0.00,,,0.34,0,Wunderground v.1.15,2013-05-19 03:45:00,
2013-05-18 23:50:00,64.1,62.6,30.00,WSW,246,0.0,0.0,95,0.00,,,0.34,0,Wunderground v.1.15,2013-05-19 03:50:00,
2013-05-18 23:55:00,64.1,62.6,30.00,WSW,246,0.0,0.0,95,0.00,,,0.34,0,Wunderground v.1.15,2013-05-19 03:55:00,